"SCET";"TARGET";"ELECTRON_DENSITY";"ERROR_FLAG";"ELECTRON_DENSITY_ERROR";"FREQ_FCE";"MEASURED_VALUE";"MEASURED_ITEM";"FREQ_PLASMA";"FREQ_UPPER_HYBRID";"FREQ_R_EQUALS_ZERO";"FREQ_L_EQUALS_ZERO";"ORBIT_NUMBER";"SATURN_RADIUS";"SATURN_IAU_LONGITUDE";"SATURN_SLS4_S_LONGITUDE";"SATURN_SLS4_N_LONGITUDE";"SATURN_SLS5_S_LONGITUDE";"SATURN_SLS5_N_LONGITUDE";"SATURN_LOCAL_TIME";"SATURN_KRONOGRAPHIC_LATITUDE";"SATURN_MAGNETIC_LATITUDE";"SATURN_L";"SATURN_L_OFFSET";"SATURN_SOLAR_EQUATORIAL_X";"SATURN_SOLAR_EQUATORIAL_Y";"SATURN_SOLAR_EQUATORIAL_Z";"SATURN_ALTITUDE";"ENCELADUS_ENCOUNTER_NUMBER";"ENCELADUS_RADIUS";"ENCELADUS_COROTATIONAL_X";"ENCELADUS_COROTATIONAL_Y";"ENCELADUS_COROTATIONAL_Z";"ENCELADUS_TRUE_ANOMALY";"ENCELADUS_PERIAPSIS_TIME";"JUPITER_RADIUS";"JUPITER_SYSTEMIII_LONGITUDE";"JUPITER_MAGNETIC_LATITUDE";"JUPITER_MAGNETIC_LOCAL_TIME";"JUPITER_L";"IO_PHASE";"EARTH_RADIUS";"EARTH_MAGNETIC_LATITUDE";"EARTH_LOCAL_TIME";"EARTH_L"
"[UTC]";"[0=Saturn, 1=Enceladus, 2=Jupiter, 3=Earth]";"[cm-3]";"[0=automated, 1=manual]";"[normalized density error]";"[Hz]";"[Hz]";"[0=upper hybrid frequency, 1=plasma frequency cutoff]";"[Hz]";"[Hz]";"[Hz]";"[Hz}";"[0, A, B, C, 3, 4, ... , 292, 293]";"[Rs where 1Rs=60268km]";"[degrees]";"[degrees]";"[degrees]";"[degrees]";"[degrees]";"[hours]";"[degrees]";"[degrees where offset=2293km north]";"[Rs where 1Rs=60268km]";"[Rs where 1Rs=60268km and offset=2293km north]";"[Rs where 1Rs=60268km]";"[Rs where 1Rs=60268km]";"[Rs where 1Rs=60268km]";"[km where ellipsoid a,b=60268km and c=54364km]";"[E0, E1, E2, ... , E21, E22]";"[Renc where 1Renc=252.1km]";"[Renc where 1Renc=252.1km]";"[Renc where 1Renc=252.1km]";"[Renc where 1Renc=252.1km]";"[degrees]";"[UTC]";"[Rj where 1Rj=71492km]";"[degrees]";"[degrees using JRM09 model]";"[hours using JRM09 model]";"[Rj where 1Rj=71492km]";"[degrees]";"[Re where 1Re=6378.1366km]";"[degrees]";"[hours]";"[Re where 1Re=6378.1366km]"
2013-05-11T00:00:02.829Z;0;8.3220e+00;0;     0.190;  1716.260;  25961.904; 0;  25905.113;  25961.904;  26777.453;  25061.193;189;   6.732;  83.242;;; 124.262; 268.762;   0.548; -10.411; -10.729;   6.959;   6.732;  -6.553;  -0.947;  -1.216;;;;;;;;;;;;;;;;;;
2013-05-11T00:00:18.829Z;0;8.9130e+00;0;     0.205;  1716.260;  26863.785; 0;  26808.906;  26863.785;  27680.766;  25964.506;189;   6.731;  83.379;;; 124.399; 268.899;   0.549; -10.388; -10.706;   6.957;   6.731;  -6.553;  -0.949;  -1.214;;;;;;;;;;;;;;;;;;
2013-05-11T00:00:34.829Z;0;8.7310e+00;0;     0.197;  1716.260;  26590.512; 0;  26535.066;  26590.512;  27407.068;  25690.809;189;   6.731;  83.517;;; 124.535; 269.035;   0.550; -10.365; -10.683;   6.956;   6.731;  -6.552;  -0.950;  -1.211;;;;;;;;;;;;;;;;;;
2013-05-11T00:00:50.829Z;0;8.7130e+00;0;     0.182;  1716.260;  26563.225; 0;  26507.723;  26563.225;  27379.738;  25663.479;189;   6.730;  83.654;;; 124.671; 269.172;   0.551; -10.342; -10.660;   6.954;   6.730;  -6.552;  -0.951;  -1.208;;;;;;;;;;;;;;;;;;
2013-05-11T00:01:22.829Z;0;8.8310e+00;0;     0.211;  1713.152;  26740.066; 0;  26685.133;  26740.066;  27555.451;  25842.301;189;   6.728;  83.928;;; 124.944; 269.444;   0.552; -10.296; -10.614;   6.950;   6.728;  -6.551;  -0.954;  -1.202;;;;;;;;;;;;;;;;;;
2013-05-11T00:01:38.829Z;0;8.8550e+00;0;     0.195;  1713.152;  26777.285; 0;  26722.428;  26777.285;  27592.729;  25879.576;189;   6.728;  84.065;;; 125.081; 269.581;   0.553; -10.273; -10.591;   6.949;   6.728;  -6.550;  -0.956;  -1.200;;;;;;;;;;;;;;;;;;
2013-05-11T00:02:10.828Z;0;8.3610e+00;0;     0.203;  1711.192;  26023.033; 0;  25966.711;  26023.033;  26836.398;  25125.207;189;   6.726;  84.340;;; 125.354; 269.854;   0.555; -10.226; -10.545;   6.945;   6.726;  -6.550;  -0.959;  -1.194;;;;;;;;;;;;;;;;;;
2013-05-11T00:02:26.828Z;0;8.8160e+00;0;     0.217;  1711.192;  26717.873; 0;  26663.020;  26717.873;  27532.338;  25821.146;189;   6.725;  84.477;;; 125.490; 269.990;   0.556; -10.203; -10.522;   6.943;   6.725;  -6.549;  -0.960;  -1.191;;;;;;;;;;;;;;;;;;
2013-05-11T00:02:42.828Z;0;8.4500e+00;0;     0.208;  1711.192;  26159.582; 0;  26103.555;  26159.582;  26973.168;  25261.977;189;   6.725;  84.614;;; 125.626; 270.126;   0.557; -10.180; -10.499;   6.942;   6.725;  -6.549;  -0.962;  -1.188;;;;;;;;;;;;;;;;;;
2013-05-11T00:02:58.828Z;0;8.8360e+00;0;     0.196;  1711.192;  26748.137; 0;  26693.344;  26748.137;  27562.648;  25851.457;189;   6.724;  84.752;;; 125.763; 270.263;   0.558; -10.157; -10.476;   6.940;   6.724;  -6.548;  -0.963;  -1.186;;;;;;;;;;;;;;;;;;
2013-05-11T00:03:30.828Z;0;8.8560e+00;0;     0.167;  1711.472;  26779.064; 0;  26724.318;  26779.064;  27593.750;  25882.279;189;   6.723;  85.026;;; 126.036; 270.536;   0.559; -10.111; -10.430;   6.936;   6.723;  -6.547;  -0.966;  -1.180;;;;;;;;;;;;;;;;;;
2013-05-11T00:03:46.828Z;0;8.9780e+00;0;     0.186;  1711.472;  26961.846; 0;  26907.471;  26961.846;  27776.811;  26065.338;189;   6.722;  85.163;;; 126.172; 270.672;   0.560; -10.088; -10.407;   6.935;   6.722;  -6.547;  -0.967;  -1.177;;;;;;;;;;;;;;;;;;
2013-05-11T00:04:02.828Z;0;8.9210e+00;0;     0.190;  1708.252;  26875.820; 0;  26821.477;  26875.820;  27689.199;  25980.947;189;   6.721;  85.300;;; 126.308; 270.808;   0.561; -10.064; -10.383;   6.933;   6.721;  -6.546;  -0.969;  -1.174;;;;;;;;;;;;;;;;;;
2013-05-11T00:04:18.828Z;0;8.9500e+00;0;     0.205;  1708.252;  26920.002; 0;  26865.748;  26920.002;  27733.447;  26025.195;189;   6.720;  85.438;;; 126.445; 270.945;   0.562; -10.041; -10.360;   6.931;   6.720;  -6.546;  -0.970;  -1.172;;;;;;;;;;;;;;;;;;
2013-05-11T00:04:34.827Z;0;8.9930e+00;0;     0.185;  1708.252;  26983.963; 0;  26929.838;  26983.963;  27797.504;  26089.252;189;   6.720;  85.575;;; 126.581; 271.081;   0.563; -10.018; -10.337;   6.929;   6.720;  -6.546;  -0.972;  -1.169;;;;;;;;;;;;;;;;;;
2013-05-11T00:04:50.827Z;0;8.9450e+00;0;     0.174;  1708.252;  26911.885; 0;  26857.613;  26911.885;  27725.318;  26017.066;189;   6.719;  85.712;;; 126.718; 271.218;   0.564;  -9.995; -10.314;   6.928;   6.719;  -6.545;  -0.973;  -1.166;;;;;;;;;;;;;;;;;;
2013-05-11T00:05:22.827Z;0;9.5000e+00;0;     0.115;  1705.172;  27730.881; 0;  27678.406;  27730.881;  28544.119;  26838.947;189;   6.718;  85.986;;; 126.990; 271.490;   0.565;  -9.949; -10.268;   6.924;   6.717;  -6.544;  -0.976;  -1.160;;;;;;;;;;;;;;;;;;
2013-05-11T00:05:38.827Z;0;9.5910e+00;0;     0.127;  1705.172;  27862.389; 0;  27810.162;  27862.389;  28675.814;  26970.643;189;   6.717;  86.124;;; 127.127; 271.627;   0.566;  -9.925; -10.245;   6.923;   6.717;  -6.544;  -0.977;  -1.158;;;;;;;;;;;;;;;;;;
2013-05-11T00:06:10.827Z;0;8.8580e+00;0;     0.176;  1702.316;  26780.504; 0;  26726.346;  26780.504;  27591.053;  25888.736;189;   6.715;  86.398;;; 127.400; 271.900;   0.568;  -9.879; -10.198;   6.919;   6.715;  -6.543;  -0.980;  -1.152;;;;;;;;;;;;;;;;;;
2013-05-11T00:06:26.827Z;0;9.1130e+00;0;     0.206;  1702.316;  27161.312; 0;  27107.914;  27161.312;  27972.432;  26270.115;189;   6.715;  86.535;;; 127.536; 272.036;   0.569;  -9.856; -10.175;   6.917;   6.715;  -6.542;  -0.982;  -1.149;;;;;;;;;;;;;;;;;;
2013-05-11T00:06:42.827Z;0;8.9820e+00;0;     0.181;  1702.316;  26966.174; 0;  26912.389;  26966.174;  27777.002;  26074.688;189;   6.714;  86.672;;; 127.672; 272.172;   0.570;  -9.833; -10.152;   6.916;   6.714;  -6.542;  -0.983;  -1.146;;;;;;;;;;;;;;;;;;
2013-05-11T00:06:58.827Z;0;8.9840e+00;0;     0.179;  1702.316;  26970.533; 0;  26916.756;  26970.533;  27781.369;  26079.053;189;   6.713;  86.810;;; 127.809; 272.309;   0.571;  -9.809; -10.129;   6.914;   6.713;  -6.542;  -0.985;  -1.144;;;;;;;;;;;;;;;;;;
2013-05-11T00:07:14.826Z;0;9.2200e+00;0;     0.194;  1699.908;  27319.572; 0;  27266.635;  27319.572;  28129.832;  26429.924;189;   6.713;  86.947;;; 127.945; 272.445;   0.571;  -9.786; -10.106;   6.912;   6.712;  -6.541;  -0.986;  -1.141;;;;;;;;;;;;;;;;;;
2013-05-11T00:07:46.826Z;0;9.2960e+00;0;     0.193;  1699.908;  27431.635; 0;  27378.914;  27431.635;  28242.057;  26542.148;189;   6.711;  87.221;;; 128.218; 272.718;   0.573;  -9.740; -10.059;   6.909;   6.711;  -6.540;  -0.989;  -1.135;;;;;;;;;;;;;;;;;;
2013-05-11T00:08:02.826Z;0;9.0960e+00;0;     0.209;  1697.556;  27136.770; 0;  27083.621;  27136.770;  27945.697;  26248.141;189;   6.710;  87.358;;; 128.354; 272.854;   0.574;  -9.716; -10.036;   6.907;   6.710;  -6.540;  -0.990;  -1.132;;;;;;;;;;;;;;;;;;
2013-05-11T00:08:18.826Z;0;9.3780e+00;0;     0.246;  1697.556;  27552.822; 0;  27500.479;  27552.822;  28362.352;  26664.795;189;   6.710;  87.496;;; 128.491; 272.991;   0.575;  -9.693; -10.013;   6.906;   6.709;  -6.539;  -0.992;  -1.130;;;;;;;;;;;;;;;;;;
2013-05-11T00:08:34.826Z;0;9.6590e+00;0;     0.191;  1697.556;  27960.545; 0;  27908.967;  27960.545;  28770.648;  27073.092;189;   6.709;  87.633;;; 128.627; 273.127;   0.576;  -9.670;  -9.990;   6.904;   6.709;  -6.539;  -0.993;  -1.127;;;;;;;;;;;;;;;;;;
2013-05-11T00:08:50.826Z;0;9.1550e+00;0;     0.191;  1697.556;  27223.787; 0;  27170.809;  27223.787;  28032.842;  26335.285;189;   6.708;  87.770;;; 128.763; 273.263;   0.577;  -9.647;  -9.967;   6.902;   6.708;  -6.538;  -0.995;  -1.124;;;;;;;;;;;;;;;;;;
2013-05-11T00:09:06.826Z;0;9.3690e+00;0;     0.216;  1698.116;  27538.826; 0;  27486.422;  27538.826;  28348.590;  26650.475;189;   6.708;  87.907;;; 128.900; 273.400;   0.577;  -9.623;  -9.943;   6.901;   6.707;  -6.538;  -0.996;  -1.121;;;;;;;;;;;;;;;;;;
2013-05-11T00:09:22.826Z;0;9.6200e+00;0;     0.169;  1698.116;  27903.900; 0;  27852.182;  27903.900;  28714.180;  27016.062;189;   6.707;  88.044;;; 129.036; 273.536;   0.578;  -9.600;  -9.920;   6.899;   6.707;  -6.537;  -0.998;  -1.118;;;;;;;;;;;;;;;;;;
2013-05-11T00:09:38.826Z;0;9.4890e+00;0;     0.166;  1698.116;  27713.785; 0;  27661.711;  27713.785;  28523.797;  26825.682;189;   6.706;  88.182;;; 129.173; 273.673;   0.579;  -9.577;  -9.897;   6.897;   6.706;  -6.537;  -0.999;  -1.115;;;;;;;;;;;;;;;;;;
2013-05-11T00:09:54.825Z;0;9.8420e+00;0;     0.190;  1698.116;  28223.654; 0;  28172.523;  28223.654;  29034.373;  27336.256;189;   6.706;  88.319;;; 129.309; 273.809;   0.580;  -9.554;  -9.874;   6.895;   6.705;  -6.536;  -1.000;  -1.113;;;;;;;;;;;;;;;;;;
2013-05-11T00:10:10.825Z;0;9.0910e+00;0;     0.198;  1696.128;  27129.666; 0;  27076.594;  27129.666;  27937.936;  26241.807;189;   6.705;  88.456;;; 129.445; 273.946;   0.581;  -9.530;  -9.851;   6.894;   6.704;  -6.536;  -1.002;  -1.110;;;;;;;;;;;;;;;;;;
2013-05-11T00:10:26.825Z;0;9.6600e+00;0;     0.193;  1696.128;  27962.416; 0;  27910.928;  27962.416;  28771.873;  27075.744;189;   6.704;  88.593;;; 129.582; 274.084;   0.582;  -9.507;  -9.827;   6.892;   6.704;  -6.535;  -1.003;  -1.107;;;;;;;;;;;;;;;;;;
2013-05-11T00:10:42.825Z;0;9.7680e+00;0;     0.167;  1696.128;  28117.109; 0;  28065.904;  28117.109;  28926.779;  27230.650;189;   6.703;  88.730;;; 129.718; 274.222;   0.583;  -9.484;  -9.804;   6.890;   6.703;  -6.535;  -1.005;  -1.104;;;;;;;;;;;;;;;;;;
2013-05-11T00:10:58.825Z;0;9.7810e+00;0;     0.196;  1696.128;  28135.949; 0;  28084.779;  28135.949;  28945.645;  27249.516;189;   6.703;  88.868;;; 129.855; 274.360;   0.584;  -9.460;  -9.781;   6.889;   6.702;  -6.535;  -1.006;  -1.101;;;;;;;;;;;;;;;;;;
2013-05-11T00:11:14.825Z;0;1.0210e+01;0;     0.132;  1696.072;  28740.754; 0;  28690.666;  28740.754;  29551.232;  27855.160;189;   6.702;  89.005;;; 129.991; 274.498;   0.584;  -9.437;  -9.758;   6.887;   6.702;  -6.534;  -1.008;  -1.099;;;;;;;;;;;;;;;;;;
2013-05-11T00:11:30.825Z;0;9.9370e+00;0;     0.150;  1696.072;  28357.979; 0;  28307.213;  28357.979;  29167.949;  27471.877;189;   6.701;  89.142;;; 130.127; 274.636;   0.585;  -9.414;  -9.734;   6.886;   6.701;  -6.534;  -1.009;  -1.096;;;;;;;;;;;;;;;;;;
2013-05-11T00:12:03.200Z;0;9.8250e+00;0;     0.096;  1694.280;  28198.773; 0;  28147.828;  28198.773;  29007.713;  27313.434;189;   6.700;  89.420;;; 130.403; 274.916;   0.587;  -9.367;  -9.687;   6.882;   6.699;  -6.533;  -1.012;  -1.090;;;;;;;;;;;;;;;;;;
2013-05-11T00:12:18.825Z;0;9.9120e+00;0;     0.100;  1694.280;  28322.043; 0;  28271.320;  28322.043;  29131.148;  27436.869;189;   6.699;  89.554;;; 130.536; 275.051;   0.588;  -9.344;  -9.665;   6.881;   6.699;  -6.532;  -1.013;  -1.087;;;;;;;;;;;;;;;;;;
2013-05-11T00:12:34.824Z;0;1.0170e+01;0;     0.086;  1694.280;  28687.281; 0;  28637.205;  28687.281;  29496.873;  27802.592;189;   6.699;  89.691;;; 130.673; 275.189;   0.589;  -9.321;  -9.641;   6.879;   6.698;  -6.532;  -1.015;  -1.085;;;;;;;;;;;;;;;;;;
2013-05-11T00:12:50.824Z;0;1.0280e+01;0;     0.097;  1694.280;  28847.627; 0;  28797.830;  28847.627;  29657.428;  27963.146;189;   6.698;  89.828;;; 130.809; 275.327;   0.590;  -9.297;  -9.618;   6.877;   6.697;  -6.531;  -1.016;  -1.082;;;;;;;;;;;;;;;;;;
2013-05-11T00:13:06.824Z;0;9.7530e+00;0;     0.175;  1691.620;  28095.016; 0;  28044.043;  28095.016;  28902.605;  27210.984;189;   6.697;  89.965;;; 130.946; 275.466;   0.590;  -9.274;  -9.595;   6.876;   6.697;  -6.531;  -1.018;  -1.079;;;;;;;;;;;;;;;;;;
2013-05-11T00:13:22.824Z;0;9.9550e+00;0;     0.076;  1691.620;  28383.275; 0;  28332.820;  28383.275;  29191.254;  27499.633;189;   6.696;  90.102;;; 131.082; 275.605;   0.591;  -9.251;  -9.571;   6.874;   6.696;  -6.530;  -1.019;  -1.076;;;;;;;;;;;;;;;;;;
2013-05-11T00:13:38.824Z;0;1.0420e+01;0;     0.089;  1691.620;  29040.633; 0;  28991.322;  29040.633;  29849.469;  28157.848;189;   6.696;  90.239;;; 131.218; 275.743;   0.592;  -9.227;  -9.548;   6.872;   6.695;  -6.530;  -1.021;  -1.073;;;;;;;;;;;;;;;;;;
2013-05-11T00:13:54.824Z;0;9.8570e+00;0;     0.169;  1691.620;  28244.877; 0;  28194.176;  28244.877;  29052.668;  27361.049;189;   6.695;  90.377;;; 131.355; 275.882;   0.593;  -9.204;  -9.525;   6.871;   6.694;  -6.529;  -1.022;  -1.071;;;;;;;;;;;;;;;;;;
2013-05-11T00:14:10.824Z;0;9.9270e+00;0;     0.180;  1688.036;  28343.529; 0;  28293.219;  28343.529;  29149.822;  27461.787;189;   6.694;  90.514;;; 131.491; 276.021;   0.594;  -9.180;  -9.502;   6.869;   6.694;  -6.529;  -1.023;  -1.068;;;;;;;;;;;;;;;;;;
2013-05-11T00:14:26.824Z;0;9.8470e+00;0;     0.158;  1688.036;  28229.895; 0;  28179.381;  28229.895;  29036.035;  27348.000;189;   6.694;  90.651;;; 131.627; 276.159;   0.595;  -9.157;  -9.478;   6.868;   6.693;  -6.528;  -1.025;  -1.065;;;;;;;;;;;;;;;;;;
2013-05-11T00:14:42.824Z;0;1.0100e+01;0;     0.199;  1688.036;  28594.422; 0;  28544.553;  28594.422;  29401.047;  27713.010;189;   6.693;  90.788;;; 131.764; 276.298;   0.596;  -9.134;  -9.455;   6.866;   6.692;  -6.528;  -1.026;  -1.062;;;;;;;;;;;;;;;;;;
2013-05-11T00:14:58.823Z;0;1.0540e+01;0;     0.108;  1688.036;  29200.459; 0;  29151.627;  29200.459;  30007.861;  28319.824;189;   6.692;  90.925;;; 131.900; 276.437;   0.596;  -9.110;  -9.432;   6.864;   6.692;  -6.527;  -1.028;  -1.059;;;;;;;;;;;;;;;;;;
2013-05-11T00:15:14.823Z;0;9.9040e+00;0;     0.163;  1686.412;  28311.092; 0;  28260.820;  28311.092;  29116.602;  27430.189;189;   6.692;  91.062;;; 132.036; 276.576;   0.597;  -9.087;  -9.408;   6.863;   6.691;  -6.527;  -1.029;  -1.057;;;;;;;;;;;;;;;;;;
2013-05-11T00:15:30.823Z;0;1.0000e+01;0;     0.190;  1686.412;  28447.070; 0;  28397.039;  28447.070;  29252.762;  27566.350;189;   6.691;  91.200;;; 132.173; 276.716;   0.598;  -9.064;  -9.385;   6.861;   6.690;  -6.526;  -1.031;  -1.054;;;;;;;;;;;;;;;;;;
2013-05-11T00:15:46.823Z;0;9.9250e+00;0;     0.175;  1686.412;  28340.305; 0;  28290.084;  28340.305;  29145.854;  27459.441;189;   6.690;  91.337;;; 132.309; 276.855;   0.599;  -9.040;  -9.362;   6.859;   6.689;  -6.526;  -1.032;  -1.051;;;;;;;;;;;;;;;;;;
2013-05-11T00:16:02.823Z;0;9.9520e+00;0;     0.186;  1683.780;  28378.652; 0;  28328.656;  28378.652;  29183.055;  27499.273;189;   6.689;  91.474;;; 132.446; 276.994;   0.600;  -9.017;  -9.338;   6.858;   6.689;  -6.525;  -1.034;  -1.048;;;;;;;;;;;;;;;;;;
2013-05-11T00:16:18.823Z;0;1.0070e+01;0;     0.192;  1683.780;  28547.811; 0;  28498.111;  28547.811;  29352.434;  27668.654;189;   6.689;  91.611;;; 132.582; 277.133;   0.601;  -8.993;  -9.315;   6.856;   6.688;  -6.525;  -1.035;  -1.045;;;;;;;;;;;;;;;;;;
2013-05-11T00:16:34.823Z;0;1.0100e+01;0;     0.166;  1683.780;  28582.693; 0;  28533.055;  28582.693;  29387.363;  27703.582;189;   6.688;  91.748;;; 132.718; 277.273;   0.602;  -8.970;  -9.292;   6.855;   6.687;  -6.524;  -1.036;  -1.043;;;;;;;;;;;;;;;;;;
2013-05-11T00:16:50.823Z;0;1.0120e+01;0;     0.187;  1683.780;  28620.578; 0;  28571.006;  28620.578;  29425.297;  27741.518;189;   6.687;  91.885;;; 132.855; 277.412;   0.603;  -8.947;  -9.268;   6.853;   6.687;  -6.524;  -1.038;  -1.040;;;;;;;;;;;;;;;;;;
2013-05-11T00:17:06.823Z;0;1.0080e+01;0;     0.189;  1680.112;  28567.012; 0;  28517.562;  28567.012;  29369.988;  27689.877;189;   6.687;  92.023;;; 132.991; 277.552;   0.603;  -8.923;  -9.245;   6.851;   6.686;  -6.523;  -1.039;  -1.037;;;;;;;;;;;;;;;;;;
2013-05-11T00:17:22.823Z;0;1.0160e+01;0;     0.197;  1680.112;  28675.158; 0;  28625.896;  28675.158;  29478.275;  27798.164;189;   6.686;  92.160;;; 133.127; 277.691;   0.604;  -8.900;  -9.221;   6.850;   6.685;  -6.523;  -1.041;  -1.034;;;;;;;;;;;;;;;;;;
2013-05-11T00:17:38.822Z;0;1.0720e+01;0;     0.220;  1680.112;  29453.791; 0;  29405.834;  29453.791;  30257.887;  28577.773;189;   6.685;  92.297;;; 133.264; 277.831;   0.605;  -8.876;  -9.198;   6.848;   6.684;  -6.522;  -1.042;  -1.031;;;;;;;;;;;;;;;;;;
2013-05-11T00:17:54.822Z;0;1.0320e+01;0;     0.207;  1680.112;  28894.635; 0;  28845.748;  28894.635;  29698.033;  28017.922;189;   6.685;  92.434;;; 133.400; 277.971;   0.606;  -8.853;  -9.175;   6.847;   6.684;  -6.522;  -1.044;  -1.029;;;;;;;;;;;;;;;;;;
2013-05-11T00:18:10.822Z;0;1.0940e+01;0;     0.146;  1689.744;  29744.949; 0;  29696.916;  29744.949;  30553.803;  28864.059;189;   6.684;  92.571;;; 133.536; 278.111;   0.607;  -8.829;  -9.151;   6.845;   6.683;  -6.521;  -1.045;  -1.026;;;;;;;;;;;;;;;;;;
2013-05-11T00:18:26.822Z;0;1.0800e+01;0;     0.203;  1689.744;  29565.057; 0;  29516.730;  29565.057;  30373.691;  28683.947;189;   6.683;  92.708;;; 133.673; 278.251;   0.608;  -8.806;  -9.128;   6.844;   6.682;  -6.521;  -1.046;  -1.023;;;;;;;;;;;;;;;;;;
2013-05-11T00:18:42.822Z;0;9.8780e+00;0;     0.195;  1689.744;  28273.877; 0;  28223.340;  28273.877;  29080.854;  27391.109;189;   6.682;  92.846;;; 133.809; 278.391;   0.609;  -8.782;  -9.105;   6.842;   6.682;  -6.520;  -1.048;  -1.020;;;;;;;;;;;;;;;;;;
2013-05-11T00:18:58.822Z;0;1.1400e+01;0;     0.098;  1689.744;  30370.172; 0;  30323.129;  30370.172;  31179.768;  29490.023;189;   6.682;  92.983;;; 133.945; 278.531;   0.609;  -8.759;  -9.081;   6.840;   6.681;  -6.520;  -1.049;  -1.017;;;;;;;;;;;;;;;;;;
2013-05-11T00:19:14.822Z;0;1.0980e+01;0;     0.154;  1693.020;  29797.727; 0;  29749.592;  29797.727;  30608.143;  28915.123;189;   6.681;  93.120;;; 134.082; 278.671;   0.610;  -8.736;  -9.058;   6.839;   6.680;  -6.519;  -1.051;  -1.014;;;;;;;;;;;;;;;;;;
2013-05-11T00:19:30.822Z;0;1.1480e+01;0;     0.072;  1693.020;  30469.838; 0;  30422.766;  30469.838;  31281.051;  29588.031;189;   6.680;  93.257;;; 134.218; 278.811;   0.611;  -8.712;  -9.034;   6.837;   6.679;  -6.519;  -1.052;  -1.012;;;;;;;;;;;;;;;;;;
2013-05-11T00:19:46.822Z;0;1.1520e+01;0;     0.070;  1693.020;  30527.307; 0;  30480.324;  30527.307;  31338.586;  29645.566;189;   6.680;  93.394;;; 134.355; 278.951;   0.612;  -8.689;  -9.011;   6.836;   6.679;  -6.518;  -1.054;  -1.009;;;;;;;;;;;;;;;;;;
2013-05-11T00:20:02.822Z;0;1.1620e+01;0;     0.068;  1687.644;  30663.244; 0;  30616.768;  30663.244;  31472.215;  29784.570;189;   6.679;  93.531;;; 134.491; 279.091;   0.613;  -8.665;  -8.987;   6.834;   6.678;  -6.518;  -1.055;  -1.006;;;;;;;;;;;;;;;;;;
2013-05-11T00:20:18.821Z;0;1.1640e+01;0;     0.116;  1687.644;  30679.305; 0;  30632.852;  30679.305;  31488.293;  29800.650;189;   6.678;  93.669;;; 134.627; 279.229;   0.614;  -8.642;  -8.964;   6.833;   6.677;  -6.517;  -1.057;  -1.003;;;;;;;;;;;;;;;;;;
2013-05-11T00:20:34.821Z;0;1.0810e+01;0;     0.164;  1687.644;  29571.816; 0;  29523.621;  29571.816;  30379.500;  28691.855;189;   6.678;  93.806;;; 134.764; 279.366;   0.615;  -8.618;  -8.941;   6.831;   6.677;  -6.517;  -1.058;  -1.000;;;;;;;;;;;;;;;;;;
2013-05-11T00:20:50.821Z;0;1.0990e+01;0;     0.173;  1687.644;  29823.822; 0;  29776.035;  29823.822;  30631.811;  28944.166;189;   6.677;  93.943;;; 134.900; 279.504;   0.616;  -8.595;  -8.917;   6.830;   6.676;  -6.516;  -1.059;  -0.998;;;;;;;;;;;;;;;;;;
2013-05-11T00:21:06.821Z;0;1.1520e+01;0;     0.166;  1686.076;  30519.678; 0;  30473.068;  30519.678;  31327.766;  29641.689;189;   6.676;  94.080;;; 135.036; 279.641;   0.616;  -8.571;  -8.894;   6.828;   6.675;  -6.516;  -1.061;  -0.995;;;;;;;;;;;;;;;;;;
2013-05-11T00:21:22.821Z;0;1.1100e+01;0;     0.164;  1686.076;  29961.068; 0;  29913.588;  29961.068;  30768.504;  29082.428;189;   6.676;  94.217;;; 135.173; 279.779;   0.617;  -8.548;  -8.870;   6.826;   6.675;  -6.515;  -1.062;  -0.992;;;;;;;;;;;;;;;;;;
2013-05-11T00:21:38.821Z;0;1.0920e+01;0;     0.165;  1686.076;  29727.682; 0;  29679.828;  29727.682;  30534.836;  28848.762;189;   6.675;  94.354;;; 135.309; 279.916;   0.618;  -8.524;  -8.847;   6.825;   6.674;  -6.515;  -1.064;  -0.989;;;;;;;;;;;;;;;;;;
2013-05-11T00:22:10.821Z;0;1.1570e+01;0;     0.170;  1685.208;  30595.582; 0;  30549.137;  30595.582;  31403.357;  29718.150;189;   6.674;  94.629;;; 135.582; 280.190;   0.620;  -8.477;  -8.800;   6.822;   6.672;  -6.514;  -1.067;  -0.984;;;;;;;;;;;;;;;;;;
2013-05-11T00:22:26.821Z;0;1.1050e+01;0;     0.175;  1685.208;  29900.297; 0;  29852.770;  29900.297;  30707.262;  29022.055;189;   6.673;  94.766;;; 135.718; 280.327;   0.621;  -8.454;  -8.776;   6.820;   6.672;  -6.513;  -1.068;  -0.981;;;;;;;;;;;;;;;;;;
2013-05-11T00:22:58.820Z;0;1.1560e+01;0;     0.169;  1685.208;  30577.059; 0;  30530.584;  30577.059;  31384.814;  29699.605;189;   6.671;  95.040;;; 135.991; 280.601;   0.622;  -8.406;  -8.729;   6.817;   6.670;  -6.512;  -1.071;  -0.975;;;;;;;;;;;;;;;;;;
2013-05-11T00:23:14.820Z;0;1.1610e+01;0;     0.175;  1680.616;  30642.193; 0;  30596.070;  30642.193;  31447.916;  29767.301;189;   6.671;  95.177;;; 136.127; 280.738;   0.623;  -8.383;  -8.706;   6.816;   6.670;  -6.512;  -1.072;  -0.972;;;;;;;;;;;;;;;;;;
2013-05-11T00:23:30.820Z;0;1.1620e+01;0;     0.163;  1680.616;  30663.086; 0;  30616.994;  30663.086;  31468.832;  29788.217;189;   6.670;  95.314;;; 136.263; 280.875;   0.624;  -8.359;  -8.682;   6.814;   6.669;  -6.511;  -1.074;  -0.969;;;;;;;;;;;;;;;;;;
2013-05-11T00:23:46.820Z;0;1.0900e+01;0;     0.162;  1680.616;  29701.199; 0;  29653.613;  29701.199;  30505.824;  28825.209;189;   6.669;  95.451;;; 136.400; 281.011;   0.625;  -8.336;  -8.659;   6.813;   6.668;  -6.511;  -1.075;  -0.967;;;;;;;;;;;;;;;;;;
2013-05-11T00:24:02.820Z;0;1.1060e+01;0;     0.164;  1676.164;  29907.105; 0;  29860.098;  29907.105;  30709.939;  29033.775;189;   6.669;  95.589;;; 136.536; 281.148;   0.626;  -8.312;  -8.635;   6.811;   6.668;  -6.510;  -1.077;  -0.964;;;;;;;;;;;;;;;;;;
2013-05-11T00:24:18.820Z;0;1.1600e+01;0;     0.166;  1676.164;  30630.533; 0;  30584.637;  30630.533;  31434.199;  29758.035;189;   6.668;  95.726;;; 136.672; 281.284;   0.627;  -8.289;  -8.612;   6.810;   6.667;  -6.510;  -1.078;  -0.961;;;;;;;;;;;;;;;;;;
2013-05-11T00:24:34.820Z;0;1.0930e+01;0;     0.182;  1676.164;  29738.453; 0;  29691.178;  29738.453;  30541.086;  28864.922;189;   6.667;  95.863;;; 136.809; 281.421;   0.628;  -8.265;  -8.588;   6.808;   6.666;  -6.509;  -1.079;  -0.958;;;;;;;;;;;;;;;;;;
2013-05-11T00:24:50.820Z;0;1.2040e+01;0;     0.182;  1676.164;  31201.160; 0;  31156.105;  31201.160;  32005.457;  30329.293;189;   6.667;  96.000;;; 136.945; 281.557;   0.629;  -8.242;  -8.565;   6.807;   6.665;  -6.509;  -1.081;  -0.955;;;;;;;;;;;;;;;;;;